Time,TemperatureF,DewpointF,PressureIn,WindDirection,WindDirectionDegrees,WindSpeedMPH,WindSpeedGustMPH,Humidity,HourlyPrecipIn,Conditions,Clouds,dailyrainin,SoftwareType,DateUTC
2013-02-15 00:00:00,31.8,19.1,30.41,SE,136,0.0,0.0,59,0.00,,---,0.00,VWS V14.01,2013-02-15 08:00:00,
2013-02-15 00:05:00,30.8,19.3,30.41,SE,136,0.0,0.0,62,0.00,,---,0.00,VWS V14.01,2013-02-15 08:05:00,
2013-02-15 00:10:00,29.2,18.5,30.41,SE,136,0.0,0.0,64,0.00,,---,0.00,VWS V14.01,2013-02-15 08:10:00,
2013-02-15 00:15:00,27.7,17.8,30.41,SE,136,0.0,0.0,66,0.00,,---,0.00,VWS V14.01,2013-02-15 08:15:00,
2013-02-15 00:20:00,26.6,17.5,30.40,SE,137,0.0,0.0,68,0.00,,---,0.00,VWS V14.01,2013-02-15 08:20:00,
2013-02-15 00:25:00,25.9,17.5,30.40,SE,136,0.0,0.0,70,0.00,,---,0.00,VWS V14.01,2013-02-15 08:25:00,
2013-02-15 00:30:00,25.7,17.6,30.40,SE,137,0.0,0.0,71,0.00,,---,0.00,VWS V14.01,2013-02-15 08:30:00,
2013-02-15 00:35:00,25.7,17.9,30.40,SE,136,0.0,0.0,72,0.00,,---,0.00,VWS V14.01,2013-02-15 08:35:00,
2013-02-15 00:40:00,25.5,17.8,30.40,SE,136,0.0,0.0,72,0.00,,---,0.00,VWS V14.01,2013-02-15 08:40:00,
2013-02-15 00:45:00,25.1,17.4,30.40,SE,137,0.0,0.0,72,0.00,,---,0.00,VWS V14.01,2013-02-15 08:45:00,
2013-02-15 00:50:00,25.3,17.5,30.40,ESE,108,0.0,0.0,72,0.00,,---,0.00,VWS V14.01,2013-02-15 08:50:00,
2013-02-15 00:56:00,25.6,17.8,30.40,ESE,108,0.0,0.0,72,0.00,,---,0.00,VWS V14.01,2013-02-15 08:56:00,
2013-02-15 01:01:00,25.8,17.7,30.40,ESE,107,0.0,1.0,71,0.00,,---,0.00,VWS V14.01,2013-02-15 09:01:00,
2013-02-15 01:06:00,26.6,17.8,30.40,East,83,0.0,0.0,69,0.00,,---,0.00,VWS V14.01,2013-02-15 09:06:00,
2013-02-15 01:11:00,25.8,17.7,30.39,NNE,24,0.0,0.0,71,0.00,,---,0.00,VWS V14.01,2013-02-15 09:11:00,
2013-02-15 01:16:00,25.4,18.0,30.39,ENE,58,0.0,0.0,73,0.00,,---,0.00,VWS V14.01,2013-02-15 09:16:00,
2013-02-15 01:21:00,25.1,17.7,30.39,NE,50,0.0,1.0,73,0.00,,---,0.00,VWS V14.01,2013-02-15 09:21:00,
2013-02-15 01:26:00,25.4,17.0,30.39,ENE,60,0.0,1.0,70,0.00,,---,0.00,VWS V14.01,2013-02-15 09:26:00,
2013-02-15 01:31:00,26.1,17.3,30.39,NE,53,0.0,1.0,69,0.00,,---,0.00,VWS V14.01,2013-02-15 09:31:00,
2013-02-15 01:36:00,27.0,17.2,30.38,East,83,0.0,1.0,66,0.00,,---,0.00,VWS V14.01,2013-02-15 09:36:00,
2013-02-15 01:41:00,28.5,17.5,30.38,NE,37,0.0,0.0,63,0.00,,---,0.00,VWS V14.01,2013-02-15 09:41:00,
2013-02-15 01:46:00,29.0,17.2,30.38,East,83,0.0,0.0,61,0.00,,---,0.00,VWS V14.01,2013-02-15 09:46:00,
2013-02-15 01:51:00,30.4,17.0,30.38,ESE,111,2.0,2.0,57,0.00,,---,0.00,VWS V14.01,2013-02-15 09:51:00,
2013-02-15 01:56:00,31.9,17.6,30.38,East,86,1.0,1.0,55,0.00,,---,0.00,VWS V14.01,2013-02-15 09:56:00,
2013-02-15 02:01:00,32.7,17.0,30.38,East,99,0.0,2.0,52,0.00,,---,0.00,VWS V14.01,2013-02-15 10:01:00,
2013-02-15 02:06:00,32.9,16.8,30.38,ESE,104,0.0,0.0,51,0.00,,---,0.00,VWS V14.01,2013-02-15 10:06:00,
2013-02-15 02:11:00,33.0,16.4,30.38,East,84,1.0,1.0,50,0.00,,---,0.00,VWS V14.01,2013-02-15 10:11:00,
2013-02-15 02:16:00,33.5,16.4,30.37,East,101,0.0,2.0,49,0.00,,---,0.00,VWS V14.01,2013-02-15 10:16:00,
2013-02-15 02:21:00,34.0,16.9,30.38,ENE,75,0.0,0.0,49,0.00,,---,0.00,VWS V14.01,2013-02-15 10:21:00,
2013-02-15 02:26:00,34.1,16.5,30.37,SSE,155,1.0,2.0,48,0.00,,---,0.00,VWS V14.01,2013-02-15 10:26:00,
2013-02-15 02:31:00,34.2,16.6,30.38,ENE,66,2.0,2.0,48,0.00,,---,0.00,VWS V14.01,2013-02-15 10:31:00,
2013-02-15 02:36:00,34.3,16.7,30.38,East,94,0.0,3.0,48,0.00,,---,0.00,VWS V14.01,2013-02-15 10:36:00,
2013-02-15 02:41:00,34.3,16.7,30.37,ENE,65,1.0,1.0,48,0.00,,---,0.00,VWS V14.01,2013-02-15 10:41:00,
2013-02-15 02:46:00,34.3,17.1,30.37,East,93,1.0,1.0,49,0.00,,---,0.00,VWS V14.01,2013-02-15 10:46:00,
2013-02-15 02:51:00,33.9,16.8,30.37,East,88,0.0,1.0,49,0.00,,---,0.00,VWS V14.01,2013-02-15 10:51:00,
2013-02-15 02:56:00,33.5,16.9,30.37,ENE,78,0.0,5.0,50,0.00,,---,0.00,VWS V14.01,2013-02-15 10:56:00,
2013-02-15 03:01:00,33.5,17.3,30.37,ENE,73,0.0,0.0,51,0.00,,---,0.00,VWS V14.01,2013-02-15 11:01:00,
2013-02-15 03:06:00,33.5,17.3,30.36,ENE,68,0.0,0.0,51,0.00,,---,0.00,VWS V14.01,2013-02-15 11:06:00,
2013-02-15 03:11:00,33.5,17.8,30.36,East,92,0.0,1.0,52,0.00,,---,0.00,VWS V14.01,2013-02-15 11:11:00,
2013-02-15 03:16:00,33.4,17.2,30.36,ENE,77,0.0,1.0,51,0.00,,---,0.00,VWS V14.01,2013-02-15 11:16:00,
2013-02-15 03:21:00,33.3,17.1,30.36,East,101,4.0,4.0,51,0.00,,---,0.00,VWS V14.01,2013-02-15 11:21:00,
2013-02-15 03:26:00,33.2,17.5,30.36,ESE,102,0.0,8.0,52,0.00,,---,0.00,VWS V14.01,2013-02-15 11:26:00,
2013-02-15 03:31:00,33.1,17.4,30.36,ENE,70,0.0,5.0,52,0.00,,---,0.00,VWS V14.01,2013-02-15 11:31:00,
2013-02-15 03:37:00,32.6,17.4,30.36,ENE,70,0.0,0.0,53,0.00,,---,0.00,VWS V14.01,2013-02-15 11:37:00,
2013-02-15 03:42:00,31.3,17.0,30.36,East,84,1.0,3.0,55,0.00,,---,0.00,VWS V14.01,2013-02-15 11:42:00,
2013-02-15 03:47:00,31.0,16.7,30.36,East,82,0.0,1.0,55,0.00,,---,0.00,VWS V14.01,2013-02-15 11:47:00,
2013-02-15 03:52:00,31.0,16.7,30.36,East,82,0.0,0.0,55,0.00,,---,0.00,VWS V14.01,2013-02-15 11:52:00,
2013-02-15 03:57:00,30.9,16.6,30.36,East,98,2.0,3.0,55,0.00,,---,0.00,VWS V14.01,2013-02-15 11:57:00,
2013-02-15 04:02:00,31.0,16.7,30.36,East,86,2.0,2.0,55,0.00,,---,0.00,VWS V14.01,2013-02-15 12:02:00,
2013-02-15 04:07:00,31.4,17.1,30.36,SSE,148,0.0,1.0,55,0.00,,---,0.00,VWS V14.01,2013-02-15 12:07:00,
2013-02-15 04:12:00,31.1,16.4,30.36,ESE,107,0.0,2.0,54,0.00,,---,0.00,VWS V14.01,2013-02-15 12:12:00,
2013-02-15 04:17:00,30.9,16.6,30.36,East,91,2.0,3.0,55,0.00,,---,0.00,VWS V14.01,2013-02-15 12:17:00,
2013-02-15 04:22:00,31.0,16.3,30.37,East,84,1.0,2.0,54,0.00,,---,0.00,VWS V14.01,2013-02-15 12:22:00,
2013-02-15 04:27:00,31.0,15.9,30.37,ENE,77,0.0,2.0,53,0.00,,---,0.00,VWS V14.01,2013-02-15 12:27:00,
2013-02-15 04:32:00,31.2,15.6,30.37,East,101,0.0,0.0,52,0.00,,---,0.00,VWS V14.01,2013-02-15 12:32:00,
2013-02-15 04:37:00,31.2,15.6,30.37,East,86,0.0,1.0,52,0.00,,---,0.00,VWS V14.01,2013-02-15 12:37:00,
2013-02-15 04:42:00,31.3,15.7,30.37,SE,131,0.0,0.0,52,0.00,,---,0.00,VWS V14.01,2013-02-15 12:42:00,
2013-02-15 04:47:00,31.2,15.2,30.37,East,94,0.0,1.0,51,0.00,,---,0.00,VWS V14.01,2013-02-15 12:47:00,
2013-02-15 04:52:00,31.3,14.4,30.37,ESE,117,0.0,0.0,49,0.00,,---,0.00,VWS V14.01,2013-02-15 12:52:00,
2013-02-15 04:57:00,31.4,14.5,30.38,East,81,0.0,0.0,49,0.00,,---,0.00,VWS V14.01,2013-02-15 12:57:00,
2013-02-15 05:02:00,31.3,14.4,30.38,ENE,77,0.0,0.0,49,0.00,,---,0.00,VWS V14.01,2013-02-15 13:02:00,
2013-02-15 05:07:00,31.2,14.3,30.38,NE,43,0.0,0.0,49,0.00,,---,0.00,VWS V14.01,2013-02-15 13:07:00,
2013-02-15 05:12:00,30.9,14.5,30.38,ESE,105,0.0,1.0,50,0.00,,---,0.00,VWS V14.01,2013-02-15 13:12:00,
2013-02-15 05:17:00,30.6,14.6,30.38,NE,41,0.0,0.0,51,0.00,,---,0.00,VWS V14.01,2013-02-15 13:17:00,
2013-02-15 05:22:00,30.3,14.4,30.38,NE,41,1.0,1.0,51,0.00,,---,0.00,VWS V14.01,2013-02-15 13:22:00,
2013-02-15 05:27:00,30.1,14.2,30.38,ESE,108,0.0,0.0,51,0.00,,---,0.00,VWS V14.01,2013-02-15 13:27:00,
2013-02-15 05:32:00,30.0,14.1,30.38,East,88,0.0,3.0,51,0.00,,---,0.00,VWS V14.01,2013-02-15 13:32:00,
2013-02-15 05:37:00,30.7,13.4,30.38,East,93,0.0,3.0,48,0.00,,---,0.00,VWS V14.01,2013-02-15 13:37:00,
2013-02-15 05:42:00,31.6,13.2,30.38,East,89,2.0,2.0,46,0.00,,---,0.00,VWS V14.01,2013-02-15 13:42:00,
2013-02-15 05:47:00,32.4,12.9,30.38,NE,53,0.0,4.0,44,0.00,,---,0.00,VWS V14.01,2013-02-15 13:47:00,
2013-02-15 05:52:00,32.7,12.7,30.38,East,89,2.0,2.0,43,0.00,,---,0.00,VWS V14.01,2013-02-15 13:52:00,
2013-02-15 05:57:00,33.0,12.4,30.38,East,82,6.0,6.0,42,0.00,,---,0.00,VWS V14.01,2013-02-15 13:57:00,
2013-02-15 06:02:00,33.2,12.6,30.38,ESE,112,0.0,1.0,42,0.00,,---,0.00,VWS V14.01,2013-02-15 14:02:00,
2013-02-15 06:07:00,33.3,12.2,30.38,ENE,78,1.0,1.0,41,0.00,,---,0.00,VWS V14.01,2013-02-15 14:07:00,
2013-02-15 06:12:00,33.2,11.5,30.38,East,82,2.0,2.0,40,0.00,,---,0.00,VWS V14.01,2013-02-15 14:12:00,
2013-02-15 06:17:00,33.2,10.9,30.39,ESE,105,3.0,3.0,39,0.00,,---,0.00,VWS V14.01,2013-02-15 14:17:00,
2013-02-15 06:22:00,33.4,11.1,30.38,East,95,0.0,1.0,39,0.00,,---,0.00,VWS V14.01,2013-02-15 14:22:00,
2013-02-15 06:28:00,33.7,10.8,30.39,East,83,1.0,1.0,38,0.00,,---,0.00,VWS V14.01,2013-02-15 14:28:00,
2013-02-15 06:33:00,33.7,10.8,30.39,SSE,152,4.0,4.0,38,0.00,,---,0.00,VWS V14.01,2013-02-15 14:33:00,
2013-02-15 06:38:00,33.7,11.4,30.39,East,98,2.0,6.0,39,0.00,,---,0.00,VWS V14.01,2013-02-15 14:38:00,
2013-02-15 06:43:00,33.7,11.4,30.39,ESE,108,0.0,4.0,39,0.00,,---,0.00,VWS V14.01,2013-02-15 14:43:00,
2013-02-15 06:48:00,33.7,11.4,30.39,East,97,1.0,3.0,39,0.00,,---,0.00,VWS V14.01,2013-02-15 14:48:00,
2013-02-15 06:53:00,33.8,11.5,30.39,East,85,2.0,2.0,39,0.00,,---,0.00,VWS V14.01,2013-02-15 14:53:00,
2013-02-15 06:58:00,33.8,10.9,30.39,East,100,0.0,0.0,38,0.00,,---,0.00,VWS V14.01,2013-02-15 14:58:00,
2013-02-15 07:03:00,33.9,11.0,30.39,ENE,65,0.0,2.0,38,0.00,,---,0.00,VWS V14.01,2013-02-15 15:03:00,
2013-02-15 07:08:00,34.0,10.5,30.39,ESE,110,2.0,2.0,37,0.00,,---,0.00,VWS V14.01,2013-02-15 15:08:00,
2013-02-15 07:13:00,34.1,10.0,30.40,East,98,0.0,3.0,36,0.00,,---,0.00,VWS V14.01,2013-02-15 15:13:00,
2013-02-15 07:18:00,34.4,9.6,30.40,East,84,1.0,1.0,35,0.00,,---,0.00,VWS V14.01,2013-02-15 15:18:00,
2013-02-15 07:23:00,34.6,9.1,30.39,East,83,3.0,3.0,34,0.00,,---,0.00,VWS V14.01,2013-02-15 15:23:00,
2013-02-15 07:28:00,35.0,9.5,30.40,East,98,1.0,2.0,34,0.00,,---,0.00,VWS V14.01,2013-02-15 15:28:00,
2013-02-15 07:33:00,35.5,9.3,30.40,East,96,4.0,4.0,33,0.00,,---,0.00,VWS V14.01,2013-02-15 15:33:00,
2013-02-15 07:38:00,36.0,8.3,30.40,ESE,102,0.0,4.0,31,0.00,,---,0.00,VWS V14.01,2013-02-15 15:38:00,
2013-02-15 07:43:00,36.4,8.7,30.40,ESE,111,0.0,7.0,31,0.00,,---,0.00,VWS V14.01,2013-02-15 15:43:00,
2013-02-15 07:48:00,36.8,7.5,30.40,NE,41,2.0,4.0,29,0.00,,---,0.00,VWS V14.01,2013-02-15 15:48:00,
2013-02-15 07:53:00,37.3,8.0,30.40,ENE,62,4.0,7.0,29,0.00,,---,0.00,VWS V14.01,2013-02-15 15:53:00,
2013-02-15 07:58:00,37.8,7.6,30.40,ENE,75,1.0,2.0,28,0.00,,---,0.00,VWS V14.01,2013-02-15 15:58:00,
2013-02-15 08:03:00,38.3,8.8,30.40,NE,43,0.0,1.0,29,0.00,,---,0.00,VWS V14.01,2013-02-15 16:03:00,
2013-02-15 08:08:00,38.6,8.3,30.40,SE,143,0.0,0.0,28,0.00,,---,0.00,VWS V14.01,2013-02-15 16:08:00,
2013-02-15 08:13:00,38.9,8.6,30.40,NNW,335,2.0,2.0,28,0.00,,---,0.00,VWS V14.01,2013-02-15 16:13:00,
2013-02-15 08:18:00,39.0,8.7,30.40,NE,39,6.0,6.0,28,0.00,,---,0.00,VWS V14.01,2013-02-15 16:18:00,
2013-02-15 08:23:00,39.3,8.9,30.40,SW,236,1.0,4.0,28,0.00,,---,0.00,VWS V14.01,2013-02-15 16:23:00,
2013-02-15 08:28:00,39.8,10.1,30.39,North,8,0.0,0.0,29,0.00,,---,0.00,VWS V14.01,2013-02-15 16:28:00,
2013-02-15 08:33:00,40.2,8.1,30.40,ESE,114,0.0,1.0,26,0.00,,---,0.00,VWS V14.01,2013-02-15 16:33:00,
2013-02-15 08:38:00,40.5,8.3,30.40,ENE,66,1.0,1.0,26,0.00,,---,0.00,VWS V14.01,2013-02-15 16:38:00,
2013-02-15 08:43:00,40.7,8.5,30.40,East,101,0.0,2.0,26,0.00,,---,0.00,VWS V14.01,2013-02-15 16:43:00,
2013-02-15 08:48:00,40.9,8.7,30.40,NW,324,2.0,4.0,26,0.00,,---,0.00,VWS V14.01,2013-02-15 16:48:00,
2013-02-15 08:53:00,41.1,8.0,30.40,ESE,105,5.0,5.0,25,0.00,,---,0.00,VWS V14.01,2013-02-15 16:53:00,
2013-02-15 08:58:00,41.3,8.1,30.39,North,9,4.0,4.0,25,0.00,,---,0.00,VWS V14.01,2013-02-15 16:58:00,
2013-02-15 09:03:00,41.3,8.1,30.39,SW,228,6.0,6.0,25,0.00,,---,0.00,VWS V14.01,2013-02-15 17:03:00,
2013-02-15 09:08:00,41.5,8.3,30.39,East,87,1.0,1.0,25,0.00,,---,0.00,VWS V14.01,2013-02-15 17:08:00,
2013-02-15 09:13:00,41.7,7.6,30.39,ENE,65,2.0,5.0,24,0.00,,---,0.00,VWS V14.01,2013-02-15 17:13:00,
2013-02-15 09:18:00,41.8,8.6,30.39,ENE,73,4.0,4.0,25,0.00,,---,0.00,VWS V14.01,2013-02-15 17:18:00,
2013-02-15 09:23:00,42.0,8.7,30.39,East,101,0.0,3.0,25,0.00,,---,0.00,VWS V14.01,2013-02-15 17:23:00,
2013-02-15 09:28:00,42.2,8.9,30.38,NNE,33,1.0,6.0,25,0.00,,---,0.00,VWS V14.01,2013-02-15 17:28:00,
2013-02-15 09:34:00,42.2,8.9,30.38,NNE,31,4.0,6.0,25,0.00,,---,0.00,VWS V14.01,2013-02-15 17:34:00,
2013-02-15 09:39:00,42.2,8.9,30.38,NNE,30,4.0,5.0,25,0.00,,---,0.00,VWS V14.01,2013-02-15 17:39:00,
2013-02-15 09:44:00,42.4,10.8,30.38,ENE,57,2.0,4.0,27,0.00,,---,0.00,VWS V14.01,2013-02-15 17:44:00,
2013-02-15 09:49:00,42.4,10.8,30.38,NE,41,2.0,3.0,27,0.00,,---,0.00,VWS V14.01,2013-02-15 17:49:00,
2013-02-15 09:54:00,42.4,10.8,30.38,NE,56,3.0,8.0,27,0.00,,---,0.00,VWS V14.01,2013-02-15 17:54:00,
2013-02-15 09:59:00,42.3,11.5,30.38,NNE,20,7.0,7.0,28,0.00,,---,0.00,VWS V14.01,2013-02-15 17:59:00,
2013-02-15 10:04:00,42.4,11.6,30.37,NE,36,6.0,8.0,28,0.00,,---,0.00,VWS V14.01,2013-02-15 18:04:00,
2013-02-15 10:09:00,42.5,11.7,30.38,NNE,15,3.0,4.0,28,0.00,,---,0.00,VWS V14.01,2013-02-15 18:09:00,
2013-02-15 10:14:00,42.7,11.9,30.38,ENE,66,5.0,7.0,28,0.00,,---,0.00,VWS V14.01,2013-02-15 18:14:00,
2013-02-15 10:19:00,43.2,12.3,30.37,NNE,15,2.0,2.0,28,0.00,,---,0.00,VWS V14.01,2013-02-15 18:19:00,
2013-02-15 10:24:00,44.0,13.0,30.37,North,5,4.0,4.0,28,0.00,,---,0.00,VWS V14.01,2013-02-15 18:24:00,
2013-02-15 10:29:00,44.1,12.3,30.37,North,356,2.0,5.0,27,0.00,,---,0.00,VWS V14.01,2013-02-15 18:29:00,
2013-02-15 10:34:00,44.6,12.7,30.37,North,11,9.0,9.0,27,0.00,,---,0.00,VWS V14.01,2013-02-15 18:34:00,
2013-02-15 10:39:00,44.9,12.1,30.37,NE,44,5.0,6.0,26,0.00,,---,0.00,VWS V14.01,2013-02-15 18:39:00,
2013-02-15 10:44:00,45.4,12.5,30.37,NE,37,4.0,4.0,26,0.00,,---,0.00,VWS V14.01,2013-02-15 18:44:00,
2013-02-15 10:49:00,45.9,11.2,30.37,NNE,31,3.0,3.0,24,0.00,,---,0.00,VWS V14.01,2013-02-15 18:49:00,
2013-02-15 10:54:00,46.5,11.7,30.37,ENE,65,1.0,4.0,24,0.00,,---,0.00,VWS V14.01,2013-02-15 18:54:00,
2013-02-15 10:59:00,46.8,12.9,30.37,NE,47,6.0,7.0,25,0.00,,---,0.00,VWS V14.01,2013-02-15 18:59:00,
2013-02-15 11:04:00,46.5,11.7,30.36,NW,326,4.0,7.0,24,0.00,,---,0.00,VWS V14.01,2013-02-15 19:04:00,
2013-02-15 11:09:00,46.2,11.4,30.37,NE,36,2.0,5.0,24,0.00,,---,0.00,VWS V14.01,2013-02-15 19:09:00,
2013-02-15 11:14:00,46.3,11.5,30.36,NNE,28,3.0,5.0,24,0.00,,---,0.00,VWS V14.01,2013-02-15 19:14:00,
2013-02-15 11:19:00,46.3,11.5,30.36,ENE,61,6.0,6.0,24,0.00,,---,0.00,VWS V14.01,2013-02-15 19:19:00,
2013-02-15 11:24:00,46.3,12.4,30.36,SSE,158,2.0,16.0,25,0.00,,---,0.00,VWS V14.01,2013-02-15 19:24:00,
2013-02-15 11:29:00,46.2,12.3,30.36,East,82,1.0,7.0,25,0.00,,---,0.00,VWS V14.01,2013-02-15 19:29:00,
2013-02-15 11:34:00,46.1,12.2,30.36,East,98,1.0,5.0,25,0.00,,---,0.00,VWS V14.01,2013-02-15 19:34:00,
2013-02-15 11:39:00,46.4,12.5,30.36,NE,34,2.0,3.0,25,0.00,,---,0.00,VWS V14.01,2013-02-15 19:39:00,
2013-02-15 11:44:00,47.0,12.1,30.36,NE,51,7.0,9.0,24,0.00,,---,0.00,VWS V14.01,2013-02-15 19:44:00,
2013-02-15 11:49:00,47.2,11.3,30.36,NNE,16,5.0,5.0,23,0.00,,---,0.00,VWS V14.01,2013-02-15 19:49:00,
2013-02-15 11:55:00,47.7,9.7,30.35,ENE,74,4.0,4.0,21,0.00,,---,0.00,VWS V14.01,2013-02-15 19:55:00,
2013-02-15 12:00:00,47.6,9.6,30.35,ESE,103,2.0,6.0,21,0.00,,---,0.00,VWS V14.01,2013-02-15 20:00:00,
2013-02-15 12:05:00,47.6,9.6,30.35,NE,56,5.0,9.0,21,0.00,,---,0.00,VWS V14.01,2013-02-15 20:05:00,
2013-02-15 12:10:00,47.6,10.6,30.35,NNW,329,10.0,10.0,22,0.00,,---,0.00,VWS V14.01,2013-02-15 20:10:00,
2013-02-15 12:15:00,47.5,10.6,30.35,NE,36,3.0,7.0,22,0.00,,---,0.00,VWS V14.01,2013-02-15 20:15:00,
2013-02-15 12:20:00,47.3,10.4,30.35,North,8,5.0,5.0,22,0.00,,---,0.00,VWS V14.01,2013-02-15 20:20:00,
2013-02-15 12:25:00,47.5,10.6,30.35,NW,313,3.0,10.0,22,0.00,,---,0.00,VWS V14.01,2013-02-15 20:25:00,
2013-02-15 12:30:00,47.3,12.4,30.35,ESE,106,1.0,3.0,24,0.00,,---,0.00,VWS V14.01,2013-02-15 20:30:00,
2013-02-15 12:35:00,47.2,10.3,30.35,NNE,12,1.0,3.0,22,0.00,,---,0.00,VWS V14.01,2013-02-15 20:35:00,
2013-02-15 12:40:00,47.1,11.2,30.35,NE,45,7.0,11.0,23,0.00,,---,0.00,VWS V14.01,2013-02-15 20:40:00,
2013-02-15 12:45:00,46.9,11.1,30.34,NNE,32,3.0,11.0,23,0.00,,---,0.00,VWS V14.01,2013-02-15 20:45:00,
2013-02-15 12:50:00,46.8,11.0,30.34,NNE,28,4.0,4.0,23,0.00,,---,0.00,VWS V14.01,2013-02-15 20:50:00,
2013-02-15 12:55:00,46.9,11.1,30.34,NE,55,4.0,11.0,23,0.00,,---,0.00,VWS V14.01,2013-02-15 20:55:00,
2013-02-15 13:00:00,46.9,12.0,30.33,NNE,21,6.0,6.0,24,0.00,,---,0.00,VWS V14.01,2013-02-15 21:00:00,
2013-02-15 13:05:00,47.0,12.1,30.33,NNE,22,4.0,4.0,24,0.00,,---,0.00,VWS V14.01,2013-02-15 21:05:00,
2013-02-15 13:10:00,47.0,11.1,30.33,NE,41,2.0,5.0,23,0.00,,---,0.00,VWS V14.01,2013-02-15 21:10:00,
2013-02-15 13:15:00,47.2,12.3,30.33,NNE,27,5.0,6.0,24,0.00,,---,0.00,VWS V14.01,2013-02-15 21:15:00,
2013-02-15 13:20:00,47.2,13.2,30.33,NNW,328,3.0,5.0,25,0.00,,---,0.00,VWS V14.01,2013-02-15 21:20:00,
2013-02-15 13:25:00,46.9,12.0,30.33,NE,45,5.0,5.0,24,0.00,,---,0.00,VWS V14.01,2013-02-15 21:25:00,
2013-02-15 13:30:00,46.9,13.8,30.33,ENE,78,3.0,4.0,26,0.00,,---,0.00,VWS V14.01,2013-02-15 21:30:00,
2013-02-15 13:35:00,47.3,13.3,30.33,NE,55,4.0,4.0,25,0.00,,---,0.00,VWS V14.01,2013-02-15 21:35:00,
2013-02-15 13:40:00,47.5,12.5,30.33,ENE,72,11.0,11.0,24,0.00,,---,0.00,VWS V14.01,2013-02-15 21:40:00,
2013-02-15 13:46:00,47.7,10.7,30.32,ENE,69,3.0,9.0,22,0.00,,---,0.00,VWS V14.01,2013-02-15 21:46:00,
2013-02-15 13:51:00,48.1,10.0,30.32,North,10,3.0,3.0,21,0.00,,---,0.00,VWS V14.01,2013-02-15 21:51:00,
2013-02-15 13:56:00,48.7,10.5,30.32,North,359,2.0,2.0,21,0.00,,---,0.00,VWS V14.01,2013-02-15 21:56:00,
2013-02-15 14:01:00,49.1,11.9,30.32,East,94,1.0,3.0,22,0.00,,---,0.00,VWS V14.01,2013-02-15 22:01:00,
2013-02-15 14:06:00,48.9,8.5,30.32,North,3,4.0,11.0,19,0.00,,---,0.00,VWS V14.01,2013-02-15 22:06:00,
2013-02-15 14:11:00,48.7,8.3,30.32,NE,43,2.0,5.0,19,0.00,,---,0.00,VWS V14.01,2013-02-15 22:11:00,
2013-02-15 14:16:00,48.7,7.1,30.32,NW,315,1.0,3.0,18,0.00,,---,0.00,VWS V14.01,2013-02-15 22:16:00,
2013-02-15 14:21:00,48.6,4.4,30.31,NE,41,6.0,10.0,16,0.00,,---,0.00,VWS V14.01,2013-02-15 22:21:00,
2013-02-15 14:26:00,48.8,3.2,30.32,NE,44,1.0,4.0,15,0.00,,---,0.00,VWS V14.01,2013-02-15 22:26:00,
2013-02-15 14:31:00,48.9,4.7,30.31,NNW,340,2.0,4.0,16,0.00,,---,0.00,VWS V14.01,2013-02-15 22:31:00,
2013-02-15 14:36:00,48.9,6.0,30.31,NE,36,4.0,6.0,17,0.00,,---,0.00,VWS V14.01,2013-02-15 22:36:00,
2013-02-15 14:41:00,48.9,6.0,30.31,NE,49,5.0,5.0,17,0.00,,---,0.00,VWS V14.01,2013-02-15 22:41:00,
2013-02-15 14:46:00,49.1,6.2,30.31,NE,47,2.0,2.0,17,0.00,,---,0.00,VWS V14.01,2013-02-15 22:46:00,
2013-02-15 14:51:00,49.1,6.2,30.31,NNE,24,7.0,11.0,17,0.00,,---,0.00,VWS V14.01,2013-02-15 22:51:00,
2013-02-15 14:56:00,49.0,6.1,30.31,SW,235,1.0,2.0,17,0.00,,---,0.00,VWS V14.01,2013-02-15 22:56:00,
2013-02-15 15:01:00,49.2,6.3,30.31,NNE,15,3.0,3.0,17,0.00,,---,0.00,VWS V14.01,2013-02-15 23:01:00,
2013-02-15 15:06:00,49.1,8.6,30.30,NNE,23,4.0,4.0,19,0.00,,---,0.00,VWS V14.01,2013-02-15 23:06:00,
2013-02-15 15:11:00,49.0,7.4,30.31,NNE,19,2.0,4.0,18,0.00,,---,0.00,VWS V14.01,2013-02-15 23:11:00,
2013-02-15 15:16:00,48.7,7.1,30.30,ENE,61,1.0,2.0,18,0.00,,---,0.00,VWS V14.01,2013-02-15 23:16:00,
2013-02-15 15:21:00,48.6,5.8,30.30,NNE,25,4.0,6.0,17,0.00,,---,0.00,VWS V14.01,2013-02-15 23:21:00,
2013-02-15 15:26:00,48.3,6.8,30.30,NNE,26,5.0,6.0,18,0.00,,---,0.00,VWS V14.01,2013-02-15 23:26:00,
2013-02-15 15:31:00,48.0,7.7,30.30,ENE,65,1.0,5.0,19,0.00,,---,0.00,VWS V14.01,2013-02-15 23:31:00,
2013-02-15 15:36:00,48.1,6.6,30.30,NNE,24,7.0,7.0,18,0.00,,---,0.00,VWS V14.01,2013-02-15 23:36:00,
2013-02-15 15:41:00,47.9,6.4,30.31,WNW,295,2.0,2.0,18,0.00,,---,0.00,VWS V14.01,2013-02-15 23:41:00,
2013-02-15 15:46:00,47.5,7.3,30.31,NNE,21,2.0,2.0,19,0.00,,---,0.00,VWS V14.01,2013-02-15 23:46:00,
2013-02-15 15:51:00,47.1,5.8,30.31,NNE,26,7.0,7.0,18,0.00,,---,0.00,VWS V14.01,2013-02-15 23:51:00,
2013-02-15 15:56:00,46.7,8.9,30.30,NE,56,1.0,3.0,21,0.00,,---,0.00,VWS V14.01,2013-02-15 23:56:00,
2013-02-15 16:01:00,46.2,6.2,30.31,NNE,20,5.0,5.0,19,0.00,,---,0.00,VWS V14.01,2013-02-16 00:01:00,
2013-02-15 16:06:00,45.7,5.8,30.30,NE,39,0.0,3.0,19,0.00,,---,0.00,VWS V14.01,2013-02-16 00:06:00,
2013-02-15 16:11:00,45.2,6.5,30.30,NNE,13,2.0,2.0,20,0.00,,---,0.00,VWS V14.01,2013-02-16 00:11:00,
2013-02-15 16:16:00,44.9,6.3,30.31,NNE,25,3.0,11.0,20,0.00,,---,0.00,VWS V14.01,2013-02-16 00:16:00,
2013-02-15 16:22:00,44.7,6.1,30.31,NE,36,3.0,3.0,20,0.00,,---,0.00,VWS V14.01,2013-02-16 00:22:00,
2013-02-15 16:27:00,44.3,6.8,30.31,ESE,113,3.0,4.0,21,0.00,,---,0.00,VWS V14.01,2013-02-16 00:27:00,
2013-02-15 16:32:00,43.7,7.4,30.31,ENE,65,0.0,2.0,22,0.00,,---,0.00,VWS V14.01,2013-02-16 00:32:00,
2013-02-15 16:37:00,43.3,7.0,30.31,NE,46,0.0,2.0,22,0.00,,---,0.00,VWS V14.01,2013-02-16 00:37:00,
2013-02-15 16:42:00,43.0,7.8,30.31,NE,41,0.0,3.0,23,0.00,,---,0.00,VWS V14.01,2013-02-16 00:42:00,
2013-02-15 16:47:00,42.8,7.6,30.31,ESE,104,1.0,3.0,23,0.00,,---,0.00,VWS V14.01,2013-02-16 00:47:00,
2013-02-15 16:52:00,42.6,7.4,30.31,North,357,1.0,3.0,23,0.00,,---,0.00,VWS V14.01,2013-02-16 00:52:00,
2013-02-15 16:57:00,42.3,7.2,30.32,East,89,0.0,2.0,23,0.00,,---,0.00,VWS V14.01,2013-02-16 00:57:00,
2013-02-15 17:02:00,42.0,6.9,30.32,NE,36,0.0,2.0,23,0.00,,---,0.00,VWS V14.01,2013-02-16 01:02:00,
2013-02-15 17:07:00,41.7,6.7,30.31,NNE,27,0.0,2.0,23,0.00,,---,0.00,VWS V14.01,2013-02-16 01:07:00,
2013-02-15 17:12:00,41.3,7.2,30.32,NNE,30,0.0,1.0,24,0.00,,---,0.00,VWS V14.01,2013-02-16 01:12:00,
2013-02-15 17:17:00,40.8,7.7,30.32,NE,45,1.0,5.0,25,0.00,,---,0.00,VWS V14.01,2013-02-16 01:17:00,
2013-02-15 17:22:00,40.3,9.0,30.32,NNE,13,4.0,5.0,27,0.00,,---,0.00,VWS V14.01,2013-02-16 01:22:00,
2013-02-15 17:27:00,39.9,8.6,30.32,NE,47,0.0,1.0,27,0.00,,---,0.00,VWS V14.01,2013-02-16 01:27:00,
2013-02-15 17:32:00,39.4,8.2,30.31,NNE,21,1.0,1.0,27,0.00,,---,0.00,VWS V14.01,2013-02-16 01:32:00,
2013-02-15 17:37:00,38.9,7.8,30.32,East,84,1.0,2.0,27,0.00,,---,0.00,VWS V14.01,2013-02-16 01:37:00,
2013-02-15 17:42:00,38.5,7.4,30.33,NNE,25,1.0,2.0,27,0.00,,---,0.00,VWS V14.01,2013-02-16 01:42:00,
2013-02-15 17:47:00,38.1,8.7,30.32,NE,52,2.0,3.0,29,0.00,,---,0.00,VWS V14.01,2013-02-16 01:47:00,
2013-02-15 17:52:00,37.9,8.5,30.33,ENE,74,1.0,5.0,29,0.00,,---,0.00,VWS V14.01,2013-02-16 01:52:00,
2013-02-15 17:57:00,37.7,7.6,30.33,NNE,18,1.0,3.0,28,0.00,,---,0.00,VWS V14.01,2013-02-16 01:57:00,
2013-02-15 18:02:00,37.3,8.0,30.33,NNE,30,1.0,1.0,29,0.00,,---,0.00,VWS V14.01,2013-02-16 02:02:00,
2013-02-15 18:07:00,37.1,7.0,30.33,ENE,73,0.0,3.0,28,0.00,,---,0.00,VWS V14.01,2013-02-16 02:07:00,
2013-02-15 18:12:00,37.0,7.7,30.34,NE,56,0.0,1.0,29,0.00,,---,0.00,VWS V14.01,2013-02-16 02:12:00,
2013-02-15 18:18:00,36.8,7.5,30.34,NNE,25,1.0,1.0,29,0.00,,---,0.00,VWS V14.01,2013-02-16 02:18:00,
2013-02-15 18:23:00,36.7,7.4,30.34,NNE,26,0.0,0.0,29,0.00,,---,0.00,VWS V14.01,2013-02-16 02:23:00,
2013-02-15 18:28:00,36.5,6.5,30.34,East,96,2.0,4.0,28,0.00,,---,0.00,VWS V14.01,2013-02-16 02:28:00,
2013-02-15 18:33:00,36.5,7.3,30.34,ENE,74,0.0,0.0,29,0.00,,---,0.00,VWS V14.01,2013-02-16 02:33:00,
2013-02-15 18:38:00,36.4,6.4,30.34,East,97,0.0,2.0,28,0.00,,---,0.00,VWS V14.01,2013-02-16 02:38:00,
2013-02-15 18:43:00,36.4,6.4,30.35,ESE,121,1.0,3.0,28,0.00,,---,0.00,VWS V14.01,2013-02-16 02:43:00,
2013-02-15 18:48:00,36.2,6.2,30.35,NE,37,0.0,0.0,28,0.00,,---,0.00,VWS V14.01,2013-02-16 02:48:00,
2013-02-15 18:53:00,36.1,6.2,30.35,NE,41,0.0,0.0,28,0.00,,---,0.00,VWS V14.01,2013-02-16 02:53:00,
2013-02-15 18:58:00,35.8,6.7,30.35,NE,41,0.0,0.0,29,0.00,,---,0.00,VWS V14.01,2013-02-16 02:58:00,
2013-02-15 19:03:00,35.3,7.7,30.36,NE,40,0.0,0.0,31,0.00,,---,0.00,VWS V14.01,2013-02-16 03:03:00,
2013-02-15 19:08:00,34.7,8.6,30.36,NE,40,0.0,0.0,33,0.00,,---,0.00,VWS V14.01,2013-02-16 03:08:00,
2013-02-15 19:13:00,34.4,8.9,30.36,NE,40,0.0,0.0,34,0.00,,---,0.00,VWS V14.01,2013-02-16 03:13:00,
2013-02-15 19:18:00,33.9,9.1,30.36,NE,40,0.0,0.0,35,0.00,,---,0.00,VWS V14.01,2013-02-16 03:18:00,
2013-02-15 19:23:00,33.4,9.3,30.36,NE,40,0.0,0.0,36,0.00,,---,0.00,VWS V14.01,2013-02-16 03:23:00,
2013-02-15 19:28:00,32.9,9.5,30.36,NE,39,0.0,0.0,37,0.00,,---,0.00,VWS V14.01,2013-02-16 03:28:00,
2013-02-15 19:33:00,32.7,9.3,30.36,NE,39,0.0,0.0,37,0.00,,---,0.00,VWS V14.01,2013-02-16 03:33:00,
2013-02-15 19:38:00,32.6,10.4,30.36,North,1,0.0,0.0,39,0.00,,---,0.00,VWS V14.01,2013-02-16 03:38:00,
2013-02-15 19:43:00,32.6,9.8,30.36,NNW,328,0.0,0.0,38,0.00,,---,0.00,VWS V14.01,2013-02-16 03:43:00,
2013-02-15 19:48:00,32.8,8.8,30.36,NNW,329,0.0,0.0,36,0.00,,---,0.00,VWS V14.01,2013-02-16 03:48:00,
2013-02-15 19:53:00,32.7,8.1,30.36,NNW,329,0.0,0.0,35,0.00,,---,0.00,VWS V14.01,2013-02-16 03:53:00,
2013-02-15 19:58:00,32.9,7.6,30.36,NE,46,0.0,0.0,34,0.00,,---,0.00,VWS V14.01,2013-02-16 03:58:00,
2013-02-15 20:03:00,33.4,8.1,30.36,NNE,13,0.0,0.0,34,0.00,,---,0.00,VWS V14.01,2013-02-16 04:03:00,
2013-02-15 20:08:00,33.3,7.3,30.36,NE,37,0.0,0.0,33,0.00,,---,0.00,VWS V14.01,2013-02-16 04:08:00,
2013-02-15 20:13:00,33.7,7.0,30.37,NNE,25,0.0,0.0,32,0.00,,---,0.00,VWS V14.01,2013-02-16 04:13:00,
2013-02-15 20:18:00,33.8,6.4,30.37,NE,53,0.0,0.0,31,0.00,,---,0.00,VWS V14.01,2013-02-16 04:18:00,
2013-02-15 20:23:00,33.8,5.7,30.37,NNE,21,0.0,0.0,30,0.00,,---,0.00,VWS V14.01,2013-02-16 04:23:00,
2013-02-15 20:28:00,33.9,5.8,30.38,NNE,20,0.0,0.0,30,0.00,,---,0.00,VWS V14.01,2013-02-16 04:28:00,
2013-02-15 20:33:00,33.6,5.5,30.38,NNE,22,0.0,0.0,30,0.00,,---,0.00,VWS V14.01,2013-02-16 04:33:00,
2013-02-15 20:38:00,33.4,4.6,30.38,NNE,21,0.0,0.0,29,0.00,,---,0.00,VWS V14.01,2013-02-16 04:38:00,
2013-02-15 20:43:00,33.3,4.5,30.38,NNE,21,0.0,0.0,29,0.00,,---,0.00,VWS V14.01,2013-02-16 04:43:00,
2013-02-15 20:48:00,33.0,4.2,30.38,NNE,21,0.0,0.0,29,0.00,,---,0.00,VWS V14.01,2013-02-16 04:48:00,
2013-02-15 20:53:00,32.7,4.0,30.39,NNE,23,0.0,0.0,29,0.00,,---,0.00,VWS V14.01,2013-02-16 04:53:00,
2013-02-15 20:59:00,32.4,3.7,30.39,NNE,23,0.0,0.0,29,0.00,,---,0.00,VWS V14.01,2013-02-16 04:59:00,
2013-02-15 21:01:00,32.3,3.6,30.39,NNE,23,0.0,0.0,29,0.00,,---,0.00,VWS V14.01,2013-02-16 05:01:00,
2013-02-15 21:02:00,32.3,3.6,30.39,NNE,23,0.0,0.0,29,0.00,,---,0.00,VWS V14.01,2013-02-16 05:02:00,
2013-02-15 21:03:00,32.4,3.7,30.39,NNE,23,0.0,0.0,29,0.00,,---,0.00,VWS V14.01,2013-02-16 05:03:00,
2013-02-15 21:09:00,32.3,3.6,30.39,NNE,23,0.0,0.0,29,0.00,,---,0.00,VWS V14.01,2013-02-16 05:09:00,
2013-02-15 21:14:00,32.2,3.5,30.38,NNE,23,0.0,0.0,29,0.00,,---,0.00,VWS V14.01,2013-02-16 05:14:00,
2013-02-15 21:19:00,32.2,2.8,30.39,NNE,23,0.0,0.0,28,0.00,,---,0.00,VWS V14.01,2013-02-16 05:19:00,
2013-02-15 21:24:00,32.4,2.9,30.39,NNE,23,0.0,0.0,28,0.00,,---,0.00,VWS V14.01,2013-02-16 05:24:00,
2013-02-15 21:29:00,32.7,2.4,30.39,NNE,23,0.0,0.0,27,0.00,,---,0.00,VWS V14.01,2013-02-16 05:29:00,
2013-02-15 21:31:00,32.8,2.5,30.38,NNE,23,0.0,0.0,27,0.00,,---,0.00,VWS V14.01,2013-02-16 05:31:00,
2013-02-15 21:36:00,33.1,2.8,30.39,NNE,23,0.0,0.0,27,0.00,,---,0.00,VWS V14.01,2013-02-16 05:36:00,
2013-02-15 21:41:00,33.4,2.2,30.39,SE,146,0.0,0.0,26,0.00,,---,0.00,VWS V14.01,2013-02-16 05:41:00,
2013-02-15 21:46:00,33.7,1.6,30.39,SE,137,0.0,0.0,25,0.00,,---,0.00,VWS V14.01,2013-02-16 05:46:00,
2013-02-15 21:51:00,33.9,1.8,30.38,SE,137,0.0,0.0,25,0.00,,---,0.00,VWS V14.01,2013-02-16 05:51:00,
2013-02-15 21:56:00,33.9,0.9,30.38,SE,136,0.0,0.0,24,0.00,,---,0.00,VWS V14.01,2013-02-16 05:56:00,
2013-02-15 22:01:00,33.9,0.9,30.38,SE,137,0.0,0.0,24,0.00,,---,0.00,VWS V14.01,2013-02-16 06:01:00,
2013-02-15 22:06:00,34.4,0.4,30.38,NE,46,0.0,0.0,23,0.00,,---,0.00,VWS V14.01,2013-02-16 06:06:00,
2013-02-15 22:11:00,34.9,0.9,30.38,NE,45,1.0,1.0,23,0.00,,---,0.00,VWS V14.01,2013-02-16 06:11:00,
2013-02-15 22:16:00,35.1,0.1,30.38,NE,47,0.0,0.0,22,0.00,,---,0.00,VWS V14.01,2013-02-16 06:16:00,
2013-02-15 22:21:00,35.0,0.1,30.38,NE,47,0.0,0.0,21,0.00,,---,0.00,VWS V14.01,2013-02-16 06:21:00,
2013-02-15 22:26:00,34.9,0.1,30.38,NE,47,0.0,0.0,21,0.00,,---,0.00,VWS V14.01,2013-02-16 06:26:00,
2013-02-15 22:31:00,35.3,0.1,30.38,NNE,22,0.0,0.0,20,0.00,,---,0.00,VWS V14.01,2013-02-16 06:31:00,
2013-02-15 22:36:00,35.3,0.1,30.38,NNE,29,0.0,0.0,20,0.00,,---,0.00,VWS V14.01,2013-02-16 06:36:00,
2013-02-15 22:41:00,35.7,0.1,30.38,NE,41,0.0,1.0,19,0.00,,---,0.00,VWS V14.01,2013-02-16 06:41:00,
2013-02-15 22:46:00,36.0,0.1,30.38,NE,50,0.0,0.0,19,0.00,,---,0.00,VWS V14.01,2013-02-16 06:46:00,
2013-02-15 22:51:00,36.3,0.1,30.38,NE,53,0.0,0.0,19,0.00,,---,0.00,VWS V14.01,2013-02-16 06:51:00,
2013-02-15 22:56:00,36.3,0.1,30.38,NE,54,0.0,0.0,19,0.00,,---,0.00,VWS V14.01,2013-02-16 06:56:00,
2013-02-15 23:01:00,36.1,0.1,30.38,NE,52,0.0,0.0,19,0.00,,---,0.00,VWS V14.01,2013-02-16 07:01:00,
2013-02-15 23:06:00,36.0,0.1,30.38,NE,52,0.0,0.0,20,0.00,,---,0.00,VWS V14.01,2013-02-16 07:06:00,
2013-02-15 23:11:00,35.6,0.1,30.38,NE,52,0.0,0.0,20,0.00,,---,0.00,VWS V14.01,2013-02-16 07:11:00,
2013-02-15 23:16:00,35.6,0.1,30.38,NE,36,0.0,0.0,20,0.00,,---,0.00,VWS V14.01,2013-02-16 07:16:00,
2013-02-15 23:21:00,35.5,0.1,30.38,East,89,1.0,1.0,20,0.00,,---,0.00,VWS V14.01,2013-02-16 07:21:00,
2013-02-15 23:26:00,35.5,0.1,30.37,East,84,0.0,0.0,19,0.00,,---,0.00,VWS V14.01,2013-02-16 07:26:00,
2013-02-15 23:31:00,35.7,0.1,30.37,East,86,0.0,0.0,20,0.00,,---,0.00,VWS V14.01,2013-02-16 07:31:00,
2013-02-15 23:37:00,35.9,0.1,30.37,East,98,0.0,0.0,19,0.00,,---,0.00,VWS V14.01,2013-02-16 07:37:00,
2013-02-15 23:42:00,36.0,0.1,30.37,NE,49,0.0,1.0,19,0.00,,---,0.00,VWS V14.01,2013-02-16 07:42:00,
2013-02-15 23:47:00,36.4,0.1,30.37,NE,36,0.0,0.0,19,0.00,,---,0.00,VWS V14.01,2013-02-16 07:47:00,
2013-02-15 23:52:00,36.3,0.1,30.37,NE,36,0.0,0.0,19,0.00,,---,0.00,VWS V14.01,2013-02-16 07:52:00,
2013-02-15 23:57:00,35.8,0.1,30.37,SE,132,1.0,1.0,19,0.00,,---,0.00,VWS V14.01,2013-02-16 07:57:00,